sat.trackr.live / text

‹ back to catalog

STARLINK-35738

NORAD 67116 · 2025-299Q

PAYLOAD ACTIVE UNKNOWN

§ Identity

Operator
Country
US
Launch date
2025-12-15
Launch site
AFETR
Launch vehicle
Mass (kg)
RCS (m²)

Purposes: comms

External: N2YO · Heavens-Above · Gunter

§ Orbital elements

Epoch: 2026-09-20T02:29:59.392896Z

Period
94.26 min
Inclination
42.9998°
Eccentricity
0.0002521
Mean motion
15.27618347 rev/d
Perigee alt
481.2 km
Apogee alt
484.7 km
Semi-major
6,861.1 km
B*
5.1089e-4
RAAN
150.6731°
Arg perigee
250.2594°
Mean anomaly
109.7986°
Rev number
4,285

§ Raw data

STARLINK-357381 67116U 25299Q   26263.10415964  .00013840  00000+0  51089-3 0  99982 67116  42.9998 150.6731 0002521 250.2594 109.7986 15.27618347 42857

JSON: /api/v1/satellites/67116 · /tle

For live sub-satellite position, see the globe view (requires WebGL).

§ Visibility from observer

Set your observer location to see the next 7 days of passes ≥ 10°. The values pass through the URL so the page stays shareable.

No JS? Fill the form by hand. The geolocation button needs JavaScript.